This is the latest recevied weather packets stored in our database for station/object IK6IHU-3. If no packets are shown the sender has not sent any weather packets the latest 10 day(s).
| Time | Temp. | Humidity | Pressure | Rain* | Wind** | Luminosity | Snow |
|---|---|---|---|---|---|---|---|
| 1777712715 | 15° C | 47% | 1023.6 hPa | 0 mm | - | 0 W/m² | - |
| 1777712656 | 14.44° C | 45% | 1023.6 hPa | 0 mm | - | 0 W/m² | - |
| 1777712596 | 15° C | 45% | 1023.6 hPa | 0 mm | - | 0 W/m² | - |
| 1777712536 | 15.56° C | 49% | 1023.7 hPa | 0 mm | - | 0 W/m² | - |
| 1777712475 | 15.56° C | 47% | 1023.8 hPa | 0 mm | - | 0 W/m² | - |
| 1777712416 | 15.56° C | 51% | 1023.6 hPa | 0 mm | - | 0 W/m² | - |
| 1777712356 | 15.56° C | 50% | 1023.7 hPa | 0 mm | - | 0 W/m² | - |
| 1777712296 | 15.56° C | 53% | 1023.7 hPa | 0 mm | - | 0 W/m² | - |
| 1777712236 | 15.56° C | 52% | 1023.7 hPa | 0 mm | - | 0 W/m² | - |
| 1777712176 | 15° C | 50% | 1023.8 hPa | 0 mm | - | 0 W/m² | - |
| 1777712116 | 15.56° C | 52% | 1023.6 hPa | 0 mm | - | 0 W/m² | - |
| 1777712055 | 15.56° C | 51% | 1023.7 hPa | 0 mm | - | 0 W/m² | - |
| 1777711996 | 15.56° C | 50% | 1023.7 hPa | 0 mm | - | 0 W/m² | - |
| 1777711936 | 15.56° C | 49% | 1023.6 hPa | 0 mm | - | 0 W/m² | - |
| 1777711875 | 15° C | 48% | 1023.6 hPa | 0 mm | - | 0 W/m² | - |
| 1777711816 | 15° C | 45% | 1023.7 hPa | 0 mm | - | 0 W/m² | - |
| 1777711756 | 15° C | 44% | 1023.7 hPa | 0 mm | - | 0 W/m² | - |
| 1777711696 | 15.56° C | 48% | 1023.5 hPa | 0 mm | - | 0 W/m² | - |
| 1777711636 | 15.56° C | 46% | 1023.7 hPa | 0 mm | - | 0 W/m² | - |
| 1777711576 | 15.56° C | 48% | 1023.8 hPa | 0 mm | - | 0 W/m² | - |
| 1777711516 | 16.11° C | 51% | 1023.7 hPa | 0 mm | - | 0 W/m² | - |
| 1777711455 | 16.11° C | 49% | 1023.8 hPa | 0 mm | - | 0 W/m² | - |
| 1777711396 | 15.56° C | 46% | 1023.8 hPa | 0 mm | - | 0 W/m² | - |
| 1777711336 | 15.56° C | 45% | 1023.8 hPa | 0 mm | - | 0 W/m² | - |
| 1777711275 | 16.11° C | 52% | 1023.9 hPa | 0 mm | - | 0 W/m² | - |
* Rain latest hour (hover to see other rain measurements)
** Current wind speed in m/s (hover to see current wind gust speed)